Yukidori Zawa_1day,,,,,,,,,,,,,,,,,,,,,,,
TIMESTAMP,Wind_Speed_Avg,Vector Wind_direction_Avg,Wind_Speed_Max,Wind_Speed_TMx,Wind_Dir_TMx,Air_Temp_Avg,Air_Temp_Max,Air_Temp_TMx,Air_Temp_Min,Air_Temp_TMn,Humidity_Avg,Humidity_Max,Humidity_TMx,Humidity_Min,Humidity_TMn,Solar radiation_Avg,PAR_Avg,UV_Avg,Press_hPa_Avg,Press_hPa_Max,Press_hPa_TMx,Press_hPa_Min,Press_hPa_TMn
"(Local time, GMT+3hr)",(m/s),(degreeN),(m/s),"(Local time, GMT+3hr)",(degreeN),(��C),(��C),"(Local time, GMT+3hr)",(��C),"(Local time, GMT+3hr)",(%),(%),"(Local time, GMT+3hr)",(%),"(Local time, GMT+3hr)",(W/m^2),(��mol/m^2/s),(W/m^2),(hPa),(hPa),"(Local time, GMT+3hr)",(hPa),"(Local time, GMT+3hr)"
,,,,,,,,,,,,,,,,,,,,,,,
2014/12/1 0:00,2.5,239,19.9,2014/11/30 19:28,62,-5,-0.5,2014/11/30 18:15,-9.7,2014/11/30 0:34,61,90,2014/11/30 0:20,40,2014/11/30 19:31,296,606,17.2,987,992,2014/11/30 2:17,974,2014/11/30 23:58
2014/12/2 0:00,11.5,68,36.4,2014/12/1 10:28,83,-3.2,-1.7,2014/12/1 19:41,-5,2014/12/1 4:39,78,96,2014/12/1 10:22,59,2014/12/1 0:30,141,368,10.5,962,974,2014/12/1 0:00,957,2014/12/1 10:57
2014/12/3 0:00,4.4,73,19.2,2014/12/2 8:09,128,-0.9,1.1,2014/12/2 18:05,-3.6,2014/12/2 2:14,47,65,2014/12/2 2:16,33,2014/12/2 23:17,200,494,14.2,967,975,2014/12/2 23:56,961,2014/12/2 0:13
2014/12/4 0:00,4,116,15.1,2014/12/3 5:38,70,-0.4,2.3,2014/12/3 14:11,-3.6,2014/12/3 5:39,38,53,2014/12/3 21:08,29,2014/12/3 10:18,361,699,19.2,978,980,2014/12/3 22:20,975,2014/12/3 0:00
2014/12/5 0:00,2.4,285,8,2014/12/4 23:57,95,-1.9,0.8,2014/12/4 14:17,-4.8,2014/12/4 6:18,51,69,2014/12/4 6:19,32,2014/12/4 23:52,375,710,19.5,975,980,2014/12/4 0:01,970,2014/12/4 23:49
2014/12/6 0:00,6.2,76,24.2,2014/12/5 20:41,62,-1.2,0.8,2014/12/5 10:08,-4.1,2014/12/5 3:07,44,73,2014/12/5 19:56,23,2014/12/5 6:01,174,420,12.4,960,970,2014/12/5 0:00,951,2014/12/5 18:07
2014/12/7 0:00,7.4,68,28.3,2014/12/6 10:17,76,-0.5,0.8,2014/12/6 15:22,-2.5,2014/12/6 5:28,56,74,2014/12/6 5:32,43,2014/12/6 23:47,179,467,13,957,960,2014/12/6 22:29,955,2014/12/6 6:32
2014/12/8 0:00,3.1,59,16.4,2014/12/7 1:12,78,-0.2,2.2,2014/12/7 15:03,-1.6,2014/12/7 23:58,49,77,2014/12/7 20:48,33,2014/12/7 14:39,143,388,11.2,963,968,2014/12/7 23:51,958,2014/12/7 0:57
2014/12/9 0:00,1.5,259,6.4,2014/12/8 23:31,263,-0.7,1.7,2014/12/8 14:14,-2.4,2014/12/8 23:59,57,72,2014/12/8 23:39,41,2014/12/8 12:04,320,662,17.3,972,976,2014/12/8 23:54,968,2014/12/8 0:00
2014/12/10 0:00,2.2,353,8.9,2014/12/9 2:36,54,-2.9,-0.2,2014/12/9 16:03,-6.5,2014/12/9 7:47,73,87,2014/12/9 5:57,56,2014/12/9 16:03,323,639,17,977,979,2014/12/9 14:35,975,2014/12/9 0:03
2014/12/11 0:00,2.6,44,13.1,2014/12/10 22:53,101,-0.5,3.8,2014/12/10 17:44,-4.8,2014/12/10 3:35,43,86,2014/12/10 0:15,23,2014/12/10 22:40,347,703,19.2,968,978,2014/12/10 0:00,959,2014/12/10 20:29
2014/12/12 0:00,4.2,67,19.1,2014/12/11 22:59,69,0.5,3.4,2014/12/11 15:23,-3.3,2014/12/11 3:11,40,56,2014/12/11 23:13,30,2014/12/11 2:23,191,464,13.7,967,970,2014/12/11 23:57,962,2014/12/11 0:00
2014/12/13 0:00,5.3,74,18.4,2014/12/12 2:49,74,-0.2,0.9,2014/12/12 16:17,-1.3,2014/12/12 4:00,54,82,2014/12/12 21:07,43,2014/12/12 2:46,163,412,11.6,974,979,2014/12/13 0:00,969,2014/12/12 0:07
2014/12/14 0:00,3.5,77,13.1,2014/12/13 2:22,63,-0.2,2.1,2014/12/13 15:12,-1.5,2014/12/13 3:33,62,89,2014/12/13 20:24,35,2014/12/13 23:41,138,362,10.4,980,982,2014/12/13 16:03,979,2014/12/13 1:22
2014/12/15 0:00,3.8,60,15.4,2014/12/14 7:00,59,2.5,6.4,2014/12/14 15:03,-1.5,2014/12/14 1:34,35,48,2014/12/14 21:00,24,2014/12/14 10:37,367,717,19.6,974,980,2014/12/14 0:00,970,2014/12/14 16:09
2014/12/16 0:00,3,45,12,2014/12/15 6:23,105,1.6,4.5,2014/12/15 14:12,-1.1,2014/12/15 6:21,38,60,2014/12/15 23:19,25,2014/12/15 11:59,329,683,18.6,979,981,2014/12/15 23:29,976,2014/12/15 0:00
2014/12/17 0:00,3.9,64,12.7,2014/12/16 2:31,68,1,3.6,2014/12/16 15:05,-1.3,2014/12/16 23:56,37,51,2014/12/16 18:38,26,2014/12/16 13:01,372,719,19.2,982,983,2014/12/16 10:00,980,2014/12/16 22:05
2014/12/18 0:00,4.5,67,14.7,2014/12/17 2:10,102,0.5,4,2014/12/17 17:45,-3,2014/12/17 3:32,35,52,2014/12/17 16:59,25,2014/12/17 17:37,391,735,19.9,977,980,2014/12/17 0:00,973,2014/12/17 19:45
2014/12/19 0:00,3.8,61,15.9,2014/12/18 6:32,71,0.6,3.7,2014/12/18 15:49,-3.1,2014/12/18 4:11,42,51,2014/12/18 16:42,34,2014/12/18 15:06,308,631,17.9,975,975,2014/12/18 13:56,974,2014/12/18 0:00
2014/12/20 0:00,3.6,78,12.9,2014/12/19 7:42,113,2.1,5.3,2014/12/19 14:13,-1.6,2014/12/19 4:52,39,54,2014/12/20 0:00,31,2014/12/19 14:35,369,718,19.5,976,978,2014/12/19 23:54,975,2014/12/19 0:00
2014/12/21 0:00,3.3,78,11.1,2014/12/20 0:52,93,3.1,6.2,2014/12/20 13:31,0.1,2014/12/20 1:45,43,55,2014/12/20 0:05,34,2014/12/20 11:21,284,619,17.3,981,982,2014/12/20 12:36,978,2014/12/20 0:00
2014/12/22 0:00,3.6,66,11.1,2014/12/21 8:03,86,4.5,7.7,2014/12/21 15:55,1.3,2014/12/21 1:16,38,46,2014/12/21 0:13,28,2014/12/21 10:41,361,733,19.6,978,980,2014/12/21 0:00,977,2014/12/21 17:37
2014/12/23 0:00,4.2,76,15.5,2014/12/22 9:01,76,4.6,7.9,2014/12/22 16:10,1.6,2014/12/22 6:15,32,40,2014/12/22 23:49,24,2014/12/22 8:58,381,738,20,974,977,2014/12/22 0:00,972,2014/12/22 14:51
2014/12/24 0:00,3.6,88,19.9,2014/12/23 6:31,75,6,9.5,2014/12/23 17:28,3.1,2014/12/23 6:22,35,43,2014/12/23 3:41,25,2014/12/23 22:55,337,690,18.8,974,975,2014/12/23 4:42,972,2014/12/23 21:01
2014/12/25 0:00,3.8,74,14.2,2014/12/24 11:52,69,3.9,5.8,2014/12/24 0:29,0.7,2014/12/24 23:48,36,68,2014/12/24 22:32,23,2014/12/24 4:02,353,708,19.1,974,977,2014/12/24 23:52,972,2014/12/24 7:24
2014/12/26 0:00,2.8,233,16.1,2014/12/25 4:50,69,2.4,5.2,2014/12/25 14:35,0.1,2014/12/25 2:37,40,64,2014/12/25 21:27,31,2014/12/25 7:42,308,638,17.3,978,979,2014/12/25 23:26,977,2014/12/25 4:32
2014/12/27 0:00,2.9,160,10.4,2014/12/26 23:38,95,2.8,5.6,2014/12/26 18:43,-0.4,2014/12/26 3:31,39,52,2014/12/26 8:12,29,2014/12/26 20:33,381,735,19.9,977,979,2014/12/26 0:00,976,2014/12/26 18:37
2014/12/28 0:00,3.3,65,12.5,2014/12/27 3:07,96,1.3,4.5,2014/12/27 10:45,-2.1,2014/12/27 23:49,55,86,2014/12/27 21:36,35,2014/12/27 10:46,312,640,17.9,977,978,2014/12/27 9:14,976,2014/12/27 19:53
2014/12/29 0:00,1.8,263,4.9,2014/12/28 4:44,6,-1.3,1.1,2014/12/28 15:13,-3.3,2014/12/28 5:07,70,89,2014/12/28 2:12,41,2014/12/28 8:34,303,593,16.4,978,980,2014/12/29 0:00,977,2014/12/28 0:00
2014/12/30 0:00,1.9,239,4.5,2014/12/29 0:03,204,-2,-0.5,2014/12/29 15:00,-3.1,2014/12/29 7:22,76,83,2014/12/29 23:57,68,2014/12/29 12:26,119,282,7.8,980,981,2014/12/29 5:54,979,2014/12/29 18:15
2014/12/31 0:00,2,272,7.4,2014/12/30 2:53,75,-1.1,2.3,2014/12/30 15:24,-4,2014/12/30 2:56,63,85,2014/12/30 0:46,37,2014/12/30 8:03,344,677,18.1,979,980,2014/12/30 4:53,978,2014/12/30 16:59
2015/1/1 0:00,2.5,339,11.1,2014/12/31 9:08,90,1,3.3,2014/12/31 12:30,-1.8,2014/12/31 0:11,50,73,2014/12/31 0:06,32,2014/12/31 12:31,243,553,15.5,981,981,2014/12/31 2:35,980,2014/12/31 18:18
2015/1/2 0:00,1.9,259,6.7,2015/1/1 0:44,44,1.4,3.7,2015/1/1 12:06,-1.5,2015/1/1 23:24,54,85,2015/1/1 23:20,37,2015/1/1 11:58,352,688,18.7,981,982,2015/1/1 4:23,980,2015/1/1 21:44
2015/1/3 0:00,1.8,257,6.7,2015/1/2 23:44,58,-0.6,2.3,2015/1/2 17:20,-3.9,2015/1/2 5:01,73,91,2015/1/2 4:30,47,2015/1/2 23:53,378,722,19.6,977,980,2015/1/2 0:02,975,2015/1/2 19:16
2015/1/4 0:00,2.3,240,12.1,2015/1/3 3:43,69,1.4,4.8,2015/1/3 15:34,-2,2015/1/3 6:00,46,67,2015/1/3 23:46,33,2015/1/3 15:38,340,669,18.5,982,987,2015/1/3 23:40,977,2015/1/3 0:00
2015/1/5 0:00,1.6,288,4.9,2015/1/4 5:16,70,0.3,2.6,2015/1/4 12:56,-2.7,2015/1/4 4:22,63,84,2015/1/4 23:46,44,2015/1/4 6:36,371,715,19.3,991,993,2015/1/4 13:46,987,2015/1/4 0:00
2015/1/6 0:00,2.2,271,9.4,2015/1/5 22:10,106,1.3,4.1,2015/1/5 17:11,-2.6,2015/1/5 0:22,35,88,2015/1/5 0:21,22,2015/1/5 7:33,374,711,19.3,986,991,2015/1/5 0:00,984,2015/1/5 20:20
2015/1/7 0:00,3,196,11.9,2015/1/6 3:51,110,0.2,2.7,2015/1/6 16:24,-2.4,2015/1/6 4:52,49,71,2015/1/6 18:12,37,2015/1/6 0:00,284,624,17.2,986,987,2015/1/6 23:23,984,2015/1/6 0:00
2015/1/8 0:00,1.4,264,5.4,2015/1/7 13:39,268,-0.6,2.4,2015/1/7 14:46,-3.5,2015/1/7 2:28,75,90,2015/1/7 2:11,51,2015/1/7 0:04,381,741,18.7,989,990,2015/1/7 13:17,987,2015/1/7 0:00
2015/1/9 0:00,1.7,253,5.8,2015/1/8 13:18,245,-2.1,0.1,2015/1/8 17:53,-4.7,2015/1/8 4:12,79,94,2015/1/8 3:35,60,2015/1/8 17:46,304,614,15.8,981,988,2015/1/8 0:00,975,2015/1/9 0:00
2015/1/10 0:00,1.9,359,9.4,2015/1/9 15:07,41,-3.1,-0.6,2015/1/9 11:25,-4.9,2015/1/9 3:02,72,86,2015/1/9 3:02,58,2015/1/9 11:29,234,477,13.3,973,975,2015/1/9 0:12,973,2015/1/9 5:52
2015/1/11 0:00,1.6,246,5.3,2015/1/10 16:10,262,-2.5,0.1,2015/1/10 15:36,-4.2,2015/1/10 23:57,65,81,2015/1/10 14:50,48,2015/1/10 19:49,213,453,11.1,977,980,2015/1/10 23:56,975,2015/1/10 0:00
2015/1/12 0:00,1.6,235,6.2,2015/1/11 4:56,84,-2.3,-0.1,2015/1/11 16:55,-5.6,2015/1/11 2:53,54,73,2015/1/11 0:11,30,2015/1/11 7:29,209,469,13.7,984,988,2015/1/11 22:49,980,2015/1/11 0:10
2015/1/13 0:00,2.1,309,10.8,2015/1/12 23:07,81,1.6,4.8,2015/1/12 16:57,-2,2015/1/12 4:23,41,59,2015/1/12 4:22,22,2015/1/12 23:12,336,665,17.7,984,988,2015/1/12 1:51,979,2015/1/12 23:08
2015/1/14 0:00,3.4,166,13.5,2015/1/13 4:39,71,0.9,3.6,2015/1/13 13:56,-1.8,2015/1/13 5:52,36,56,2015/1/13 19:10,25,2015/1/13 9:17,336,652,17.9,980,984,2015/1/13 22:44,978,2015/1/13 1:24
2015/1/15 0:00,2.7,81,9.9,2015/1/14 3:23,75,1.3,4.5,2015/1/14 16:16,-2.4,2015/1/14 5:18,37,57,2015/1/14 12:05,25,2015/1/14 9:02,360,682,18,985,987,2015/1/15 0:00,984,2015/1/14 0:00
2015/1/16 0:00,2.5,287,9.1,2015/1/15 7:43,80,1,3.6,2015/1/15 13:45,-1.4,2015/1/15 3:10,47,71,2015/1/15 23:58,30,2015/1/15 0:18,350,674,17.9,991,995,2015/1/15 23:55,987,2015/1/15 0:02
2015/1/17 0:00,3.5,6,30.3,2015/1/16 23:26,56,0.6,4.1,2015/1/16 12:29,-3.1,2015/1/16 4:14,55,99,2015/1/17 0:00,28,2015/1/16 7:57,243,517,14.6,991,996,2015/1/16 10:00,971,2015/1/16 23:44
2015/1/18 0:00,12.5,57,43.1,2015/1/17 2:30,72,0.1,0.9,2015/1/17 16:53,-0.7,2015/1/17 0:12,98,100,2015/1/17 0:46,90,2015/1/17 17:43,186,412,11.4,972,983,2015/1/17 23:59,965,2015/1/17 4:03
2015/1/19 0:00,4.7,43,16,2015/1/18 0:40,46,-0.5,0.6,2015/1/18 13:07,-1.5,2015/1/18 22:38,96,100,2015/1/18 1:13,83,2015/1/18 13:13,117,310,8.9,992,998,2015/1/18 23:45,983,2015/1/18 0:00
2015/1/20 0:00,1.9,319,5.3,2015/1/19 17:01,263,-1.1,2.5,2015/1/19 10:47,-4.3,2015/1/19 23:50,88,100,2015/1/20 0:00,70,2015/1/19 10:49,206,458,12.3,992,998,2015/1/19 0:41,984,2015/1/19 23:57
2015/1/21 0:00,1.5,354,6.4,2015/1/20 16:22,79,-4.2,-0.6,2015/1/20 13:21,-6.9,2015/1/20 5:22,81,100,2015/1/20 0:06,61,2015/1/20 9:37,322,609,17.2,978,984,2015/1/20 0:00,976,2015/1/20 15:16
2015/1/22 0:00,1.6,310,10.1,2015/1/21 22:26,72,-1.5,1.7,2015/1/21 16:26,-5.6,2015/1/21 0:26,64,88,2015/1/21 1:06,43,2015/1/21 16:05,196,465,13.2,979,982,2015/1/21 23:49,978,2015/1/21 0:00
2015/1/23 0:00,4.1,64,14.6,2015/1/22 8:36,95,-0.1,1.1,2015/1/22 9:53,-1.5,2015/1/22 23:02,59,69,2015/1/22 17:11,52,2015/1/22 16:40,148,372,10.4,983,985,2015/1/22 10:00,982,2015/1/22 0:00
2015/1/24 0:00,2.9,87,11.8,2015/1/23 23:59,78,-0.4,2.7,2015/1/23 17:57,-2.3,2015/1/23 23:51,46,69,2015/1/23 5:07,30,2015/1/23 11:15,324,640,17,977,982,2015/1/23 0:00,972,2015/1/23 23:58
2015/1/25 0:00,3.9,107,14.8,2015/1/24 3:45,91,-0.5,2.6,2015/1/24 18:18,-3.5,2015/1/24 4:28,38,51,2015/1/24 7:31,28,2015/1/24 15:38,332,627,16.9,972,974,2015/1/24 23:48,971,2015/1/24 5:09
2015/1/26 0:00,3.7,220,14.6,2015/1/25 6:01,88,0.5,3.7,2015/1/25 17:18,-2.6,2015/1/25 23:48,44,74,2015/1/25 20:45,31,2015/1/25 11:50,286,563,15.9,978,979,2015/1/25 23:57,974,2015/1/25 0:00
2015/1/27 0:00,2,295,7.4,2015/1/26 2:30,70,-1.9,0.6,2015/1/26 12:21,-4,2015/1/26 23:53,51,66,2015/1/26 20:16,38,2015/1/26 6:14,320,608,16.4,983,984,2015/1/26 16:23,979,2015/1/26 0:00
2015/1/28 0:00,1.8,291,12,2015/1/27 23:56,96,-0.9,2.8,2015/1/27 17:56,-5,2015/1/27 3:48,54,75,2015/1/27 3:44,40,2015/1/27 13:37,324,612,16.2,980,984,2015/1/27 0:00,977,2015/1/27 18:34
2015/1/29 0:00,1.9,281,10.8,2015/1/28 0:16,90,0.2,2.9,2015/1/28 10:18,-3.3,2015/1/28 23:34,57,81,2015/1/29 0:00,40,2015/1/28 0:14,289,581,15.3,979,981,2015/1/28 23:56,978,2015/1/28 0:05
2015/1/30 0:00,1.2,254,5.4,2015/1/29 15:14,256,-2.5,1.4,2015/1/29 15:08,-6,2015/1/29 6:23,77,88,2015/1/29 2:03,52,2015/1/29 15:08,306,586,15.7,983,985,2015/1/29 17:06,981,2015/1/29 0:00
2015/1/31 0:00,1.6,303,8.6,2015/1/30 20:58,23,-4.3,-0.6,2015/1/30 17:47,-9.2,2015/1/30 6:15,77,97,2015/1/30 6:50,57,2015/1/30 13:50,309,579,15.4,984,988,2015/1/30 23:39,983,2015/1/30 7:43
2015/2/1 0:00,1.5,264,6.1,2015/1/31 10:41,279,-2.4,0.8,2015/1/31 13:05,-4.7,2015/1/31 4:31,60,77,2015/1/31 23:03,43,2015/1/31 7:44,NAN,NAN,14.2,986,989,2015/1/31 2:56,980,2015/1/31 23:49
2015/2/2 0:00,1.3,266,4.3,2015/2/1 23:58,86,0.1,3.6,2015/2/1 12:18,-3.7,2015/2/1 1:08,64,91,2015/2/1 22:53,40,2015/2/1 12:18,209,409,12.8,976,980,2015/2/1 0:00,974,2015/2/1 9:27
2015/2/3 0:00,1.8,321,6.9,2015/2/2 23:31,87,-1.1,0.7,2015/2/2 15:48,-2.8,2015/2/2 2:36,71,87,2015/2/2 0:02,49,2015/2/2 23:40,208,394,12.1,980,982,2015/2/2 10:15,977,2015/2/2 23:36
2015/2/4 0:00,2.5,91,9.8,2015/2/3 0:41,92,0.1,3,2015/2/3 15:04,-2.5,2015/2/3 6:14,42,58,2015/2/3 16:59,31,2015/2/3 13:48,290,499,14.5,976,979,2015/2/3 23:57,974,2015/2/3 9:02
2015/2/5 0:00,2.8,65,8.8,2015/2/4 3:06,51,-2.1,0.4,2015/2/4 14:14,-4.2,2015/2/4 5:46,42,62,2015/2/4 10:35,33,2015/2/4 9:08,291,490,14.3,983,985,2015/2/4 23:13,979,2015/2/4 0:11
2015/2/6 0:00,2.2,220,6.4,2015/2/5 0:14,75,-3.8,-0.4,2015/2/5 15:07,-7.1,2015/2/5 23:39,41,70,2015/2/5 23:46,27,2015/2/5 11:18,291,482,14.1,984,985,2015/2/5 6:20,981,2015/2/5 23:55
2015/2/7 0:00,1.6,300,5.5,2015/2/6 5:14,80,-5.5,-2.4,2015/2/6 11:57,-9.7,2015/2/6 3:45,57,84,2015/2/6 1:33,31,2015/2/6 9:09,273,458,13.7,982,985,2015/2/6 23:49,981,2015/2/6 6:15
2015/2/8 0:00,0.9,274,3.2,2015/2/7 14:17,255,-3.3,-0.9,2015/2/7 13:03,-7.1,2015/2/7 0:00,76,98,2015/2/7 23:49,54,2015/2/7 7:48,135,275,9.1,989,992,2015/2/7 20:31,985,2015/2/7 0:39
2015/2/9 0:00,0.8,236,3.3,2015/2/8 23:28,247,-2.1,0.2,2015/2/8 6:57,-4.6,2015/2/8 3:26,92,98,2015/2/8 2:35,79,2015/2/8 7:01,67,166,2.3,989,993,2015/2/8 1:53,979,2015/2/9 0:00
2015/2/10 0:00,1.4,24,6.7,2015/2/9 1:28,97,-4.5,-1.6,2015/2/9 0:36,-8.5,2015/2/9 6:24,63,82,2015/2/9 0:00,40,2015/2/9 2:17,218,382,8,974,979,2015/2/9 0:00,973,2015/2/9 12:38
2015/2/11 0:00,1.3,263,8,2015/2/10 0:54,106,-3.8,-1.5,2015/2/10 15:16,-6.5,2015/2/10 0:58,75,86,2015/2/10 7:32,58,2015/2/10 2:23,148,285,9,979,981,2015/2/10 11:49,976,2015/2/10 0:00
2015/2/12 0:00,1.3,242,5.7,2015/2/11 6:45,78,-2.1,0,2015/2/11 15:31,-5.4,2015/2/11 2:22,60,75,2015/2/11 16:59,46,2015/2/11 8:16,137,272,8.9,975,979,2015/2/11 0:00,973,2015/2/11 18:57
2015/2/13 0:00,1.8,349,8,2015/2/12 5:23,88,-2.8,-0.1,2015/2/12 10:55,-6.9,2015/2/12 23:59,58,83,2015/2/12 23:44,38,2015/2/12 10:56,219,384,11.5,975,977,2015/2/12 23:32,973,2015/2/12 5:59
2015/2/14 0:00,2.3,272,13.3,2015/2/13 23:22,81,-4.7,-2.2,2015/2/13 20:23,-7.2,2015/2/13 0:27,55,87,2015/2/13 4:24,23,2015/2/13 20:23,265,434,12.4,977,978,2015/2/13 10:29,975,2015/2/13 23:55
2015/2/15 0:00,3.4,66,19.5,2015/2/14 4:22,71,-3.2,0.7,2015/2/14 13:47,-7.1,2015/2/14 6:08,34,46,2015/2/14 6:09,22,2015/2/14 9:08,250,426,12.4,978,983,2015/2/14 23:52,975,2015/2/14 1:35
2015/2/16 0:00,2.7,71,10.2,2015/2/15 0:20,94,-2.3,-0.2,2015/2/15 11:58,-4.8,2015/2/15 23:55,44,61,2015/2/15 16:59,36,2015/2/15 22:55,139,272,8.6,986,987,2015/2/15 12:17,983,2015/2/15 0:00
2015/2/17 0:00,2.7,63,9.3,2015/2/16 4:57,67,-3.3,-0.3,2015/2/16 16:21,-6.2,2015/2/16 4:19,46,66,2015/2/16 22:41,34,2015/2/16 4:51,163,311,9.4,980,985,2015/2/16 0:00,975,2015/2/16 23:55
2015/2/18 0:00,3.2,78,13.4,2015/2/17 9:47,114,-2.3,-0.6,2015/2/17 15:34,-4,2015/2/17 4:33,56,81,2015/2/17 16:52,49,2015/2/17 22:10,66,148,4.6,971,975,2015/2/17 0:00,969,2015/2/17 19:38
2015/2/19 0:00,2.2,107,10.4,2015/2/18 0:35,125,-2,0.6,2015/2/18 17:07,-4.3,2015/2/18 23:59,55,72,2015/2/18 11:38,46,2015/2/18 21:16,143,265,8.1,971,972,2015/2/18 23:40,970,2015/2/18 1:26
2015/2/20 0:00,1.7,341,6.8,2015/2/19 0:29,70,-2.7,-0.4,2015/2/19 13:23,-4.6,2015/2/19 0:21,62,82,2015/2/19 22:53,50,2015/2/19 6:18,119,232,7.3,973,977,2015/2/19 23:42,971,2015/2/19 1:58
2015/2/21 0:00,1.5,358,10.4,2015/2/20 11:34,104,-2,-0.5,2015/2/20 12:24,-3.2,2015/2/20 4:39,64,85,2015/2/20 14:09,42,2015/2/20 11:44,86,177,5.4,980,982,2015/2/20 14:26,977,2015/2/20 0:00
2015/2/22 0:00,2.4,50,12,2015/2/21 21:49,60,-0.5,2.5,2015/2/21 15:21,-3.1,2015/2/21 6:06,52,66,2015/2/21 11:12,41,2015/2/21 1:11,148,272,8.5,974,980,2015/2/21 0:17,970,2015/2/21 19:38
2015/2/23 0:00,6.4,67,29.4,2015/2/22 23:58,66,-1,0.5,2015/2/22 13:35,-2.9,2015/2/22 23:53,65,95,2015/2/22 23:54,56,2015/2/22 1:00,92,200,6.5,966,972,2015/2/22 3:26,946,2015/2/22 23:58
2015/2/24 0:00,9.3,52,34.5,2015/2/23 0:54,68,0.2,2.2,2015/2/23 12:24,-2.7,2015/2/23 0:01,84,96,2015/2/23 4:09,72,2015/2/23 9:31,121,254,7.1,951,962,2015/2/23 23:57,943,2015/2/23 4:39
2015/2/25 0:00,6.4,68,19.8,2015/2/24 5:27,91,0.8,2,2015/2/24 13:40,-0.9,2015/2/24 7:42,67,87,2015/2/24 7:41,52,2015/2/24 23:05,137,265,7.9,974,980,2015/2/24 23:04,962,2015/2/24 0:03
2015/2/26 0:00,1.3,282,5.9,2015/2/25 22:10,82,-2.9,0.3,2015/2/25 0:55,-4.7,2015/2/25 23:27,74,92,2015/2/25 5:13,47,2015/2/25 21:05,65,138,4.5,972,980,2015/2/25 0:00,966,2015/2/25 23:32
2015/2/27 0:00,1.6,44,6.5,2015/2/26 20:18,83,-4.1,-2.5,2015/2/26 21:01,-5.6,2015/2/26 5:14,60,80,2015/2/27 0:00,46,2015/2/26 2:05,35,84,2.8,970,976,2015/2/26 23:59,966,2015/2/26 0:32
2015/2/28 0:00,5.4,69,17.4,2015/2/27 23:50,52,-2.7,-1.4,2015/2/27 12:58,-4.4,2015/2/27 22:27,66,92,2015/2/27 0:51,57,2015/2/27 16:33,68,145,4.5,976,977,2015/2/27 11:54,972,2015/2/28 0:00
2015/3/1 0:00,6.8,79,22.8,2015/2/28 17:31,72,-2.1,-0.5,2015/2/28 17:55,-4.7,2015/2/28 5:19,64,77,2015/2/28 15:19,43,2015/2/28 1:21,39,94,3.1,967,973,2015/2/28 0:03,964,2015/2/28 14:18
2015/3/2 0:00,2.7,87,15.6,2015/3/1 5:04,104,-1.1,1.5,2015/3/1 11:38,-6.8,2015/3/1 23:17,62,90,2015/3/1 21:13,40,2015/3/1 9:30,93,184,5.4,980,985,2015/3/1 22:58,971,2015/3/1 0:00
2015/3/3 0:00,2.1,307,11.7,2015/3/2 21:29,93,-5.3,-3.1,2015/3/2 17:23,-8.1,2015/3/2 6:45,69,88,2015/3/2 5:26,35,2015/3/2 22:07,93,173,5.7,985,986,2015/3/2 3:00,984,2015/3/2 18:44
2015/3/4 0:00,2.3,313,11.1,2015/3/3 4:15,91,-4.8,-2.4,2015/3/3 10:07,-6.7,2015/3/3 23:58,41,65,2015/3/3 23:46,21,2015/3/3 9:31,152,261,7.6,988,989,2015/3/3 23:58,986,2015/3/3 0:00
2015/3/5 0:00,1.6,3,7.8,2015/3/4 21:41,115,-5,-2.4,2015/3/4 11:42,-7.2,2015/3/4 1:00,37,69,2015/3/4 1:02,23,2015/3/4 22:27,134,236,6.8,982,989,2015/3/4 0:01,974,2015/3/4 23:56
2015/3/6 0:00,2,46,8.7,2015/3/5 23:51,95,-5.7,-2.7,2015/3/5 15:03,-7.7,2015/3/5 1:08,46,67,2015/3/5 6:34,28,2015/3/5 11:16,144,242,7,972,977,2015/3/5 23:42,970,2015/3/5 8:09
2015/3/7 0:00,3.4,72,13,2015/3/6 13:19,68,-4.6,-1.5,2015/3/6 23:29,-6.6,2015/3/6 0:03,51,69,2015/3/6 21:12,32,2015/3/6 17:07,63,129,4,975,978,2015/3/6 6:27,968,2015/3/6 23:51
2015/3/8 0:00,2.4,59,15.3,2015/3/7 2:14,74,-1.4,0.4,2015/3/7 13:33,-3.7,2015/3/7 3:09,52,78,2015/3/7 22:35,41,2015/3/7 10:05,65,134,4.3,972,980,2015/3/7 23:59,967,2015/3/7 2:20
2015/3/9 0:00,4.4,71,17.4,2015/3/8 12:47,81,-0.9,0.3,2015/3/8 16:22,-2.1,2015/3/8 2:13,58,77,2015/3/8 9:00,45,2015/3/8 20:40,67,143,4.4,985,988,2015/3/8 9:56,977,2015/3/8 23:59
2015/3/10 0:00,10.7,70,28.8,2015/3/9 4:07,89,0.3,2.1,2015/3/9 13:44,-2.1,2015/3/9 2:03,74,89,2015/3/9 2:54,61,2015/3/9 0:00,60,139,4.2,967,977,2015/3/9 0:00,965,2015/3/9 5:59
2015/3/11 0:00,7.3,70,23.9,2015/3/10 3:49,89,-0.6,0.6,2015/3/10 12:14,-2.2,2015/3/10 23:35,63,81,2015/3/10 2:38,31,2015/3/10 21:56,76,157,4.4,976,981,2015/3/10 18:39,969,2015/3/10 0:00
2015/3/12 0:00,2.2,42,12.4,2015/3/11 22:09,80,-2,0.1,2015/3/11 15:29,-4.2,2015/3/11 6:06,49,68,2015/3/11 23:07,36,2015/3/11 8:24,114,202,6,970,978,2015/3/11 0:01,967,2015/3/11 14:58
2015/3/13 0:00,2.2,23,13.5,2015/3/12 11:09,33,-3.3,-0.2,2015/3/12 16:57,-7.1,2015/3/12 4:11,70,91,2015/3/12 4:15,50,2015/3/12 23:23,106,192,5.2,979,982,2015/3/12 15:03,972,2015/3/12 0:00
2015/3/14 0:00,2.2,85,12.2,2015/3/13 7:00,96,-2.6,-1.2,2015/3/13 16:06,-4.6,2015/3/13 23:58,53,77,2015/3/13 17:27,36,2015/3/13 21:56,32,74,2.5,977,980,2015/3/13 0:00,975,2015/3/13 17:04
2015/3/15 0:00,1.4,12,6.3,2015/3/14 6:25,71,-5.1,-3.7,2015/3/14 11:55,-6.4,2015/3/14 6:29,60,82,2015/3/14 20:21,39,2015/3/14 0:32,91,165,5.1,980,983,2015/3/14 19:49,975,2015/3/14 0:00
2015/3/16 0:00,1.9,68,10.4,2015/3/15 15:10,50,-3.5,-1.6,2015/3/15 14:07,-6,2015/3/15 23:59,49,79,2015/3/15 4:27,28,2015/3/15 19:57,51,107,3.5,974,983,2015/3/15 0:07,966,2015/3/15 23:59
2015/3/17 0:00,1.4,340,9.7,2015/3/16 20:09,74,-9.1,-5,2015/3/16 20:06,-14.2,2015/3/16 7:45,68,86,2015/3/16 23:50,30,2015/3/16 14:26,62,117,3.8,972,978,2015/3/16 23:58,966,2015/3/16 0:07
2015/3/18 0:00,1.8,58,9.3,2015/3/17 19:40,55,-6.2,-3.6,2015/3/17 13:06,-12.5,2015/3/17 5:06,62,92,2015/3/17 5:13,46,2015/3/17 13:08,50,102,3.3,976,979,2015/3/17 4:54,973,2015/3/17 23:48
2015/3/19 0:00,3.8,72,14,2015/3/18 16:06,66,-5.8,-4.2,2015/3/18 15:16,-7.4,2015/3/18 7:23,63,86,2015/3/18 21:29,53,2015/3/18 15:20,35,73,2.4,973,974,2015/3/18 23:57,972,2015/3/18 5:38
2015/3/20 0:00,3.1,47,13.4,2015/3/19 17:18,80,-4.7,-3.2,2015/3/19 13:23,-6.1,2015/3/19 8:14,78,95,2015/3/19 11:46,63,2015/3/19 22:36,36,88,2.6,979,982,2015/3/19 17:26,974,2015/3/19 0:00
2015/3/21 0:00,0.6,90,5.1,2015/3/20 0:27,249,-6.2,-1.5,2015/3/20 11:04,-11.6,2015/3/20 23:59,84,97,2015/3/20 3:58,55,2015/3/20 11:05,54,127,2.3,975,981,2015/3/20 0:00,970,2015/3/20 22:44
2015/3/22 0:00,1.2,9,6.2,2015/3/21 14:22,55,-13.8,-9.2,2015/3/21 2:00,-18.7,2015/3/21 7:37,83,97,2015/3/21 7:45,63,2015/3/21 14:40,74,134,2.9,968,970,2015/3/21 0:00,967,2015/3/22 0:00
2015/3/23 0:00,3,62,13.9,2015/3/22 18:30,71,-7.8,-5.4,2015/3/22 13:54,-12.7,2015/3/22 0:53,54,89,2015/3/22 0:58,32,2015/3/22 18:47,86,143,4.8,969,971,2015/3/22 23:28,967,2015/3/22 0:00
2015/3/24 0:00,0.8,86,6.8,2015/3/23 0:53,95,-11.9,-7,2015/3/23 3:34,-17.3,2015/3/23 22:45,75,93,2015/3/23 19:35,51,2015/3/23 0:03,65,124,3.9,972,973,2015/3/23 10:20,971,2015/3/23 0:22
2015/3/25 0:00,0.5,71,5.5,2015/3/24 23:33,59,-14.1,-8.5,2015/3/24 14:19,-19.5,2015/3/24 8:26,75,94,2015/3/24 5:57,53,2015/3/24 14:20,66,116,4.2,965,971,2015/3/24 0:00,960,2015/3/24 23:46
2015/3/26 0:00,2.7,61,6.8,2015/3/25 4:06,75,-11.2,-6.9,2015/3/25 14:16,-13,2015/3/25 22:19,52,60,2015/3/25 15:49,40,2015/3/25 14:17,60,104,4.2,959,963,2015/3/26 0:00,958,2015/3/25 6:19
2015/3/27 0:00,1.6,61,6.5,2015/3/26 6:26,76,-13,-9.2,2015/3/26 13:47,-15.6,2015/3/26 11:25,52,60,2015/3/26 11:31,39,2015/3/26 12:12,54,95,4,968,972,2015/3/26 23:26,962,2015/3/26 0:01
2015/3/28 0:00,2.7,59,12.6,2015/3/27 10:51,90,-8.3,-4.8,2015/3/27 20:54,-12.4,2015/3/27 4:33,58,79,2015/3/27 22:49,47,2015/3/27 9:51,51,95,3.5,972,974,2015/3/27 11:46,967,2015/3/27 23:57
2015/3/29 0:00,6.4,68,20.3,2015/3/28 1:04,81,-4.3,-2.6,2015/3/28 21:33,-5.8,2015/3/28 6:46,68,80,2015/3/28 12:51,57,2015/3/28 19:29,27,63,1.9,964,968,2015/3/28 23:48,961,2015/3/28 12:39
2015/3/30 0:00,6,66,18.4,2015/3/29 5:06,86,-3.7,-2.7,2015/3/29 14:51,-4.5,2015/3/29 6:08,57,66,2015/3/29 6:08,51,2015/3/29 8:30,25,54,1.7,972,976,2015/3/29 23:55,968,2015/3/29 0:00
2015/3/31 0:00,1.7,77,11.6,2015/3/30 22:40,81,-5.1,-3.4,2015/3/30 13:02,-6.7,2015/3/30 20:11,81,97,2015/3/30 20:16,56,2015/3/30 0:10,36,78,1.6,977,978,2015/3/30 5:11,973,2015/3/30 23:48
2015/4/1 0:00,2,358,11.7,2015/3/31 3:52,106,-8.7,-4.3,2015/3/31 0:05,-13.4,2015/3/31 23:59,84,96,2015/3/31 7:46,60,2015/3/31 5:20,37,76,2.7,973,974,2015/3/31 11:31,971,2015/3/31 23:58
2015/4/2 0:00,5.9,86,27.4,2015/4/1 21:36,36,-8.6,-4.3,2015/4/1 6:31,-14,2015/4/1 2:44,78,93,2015/4/1 1:55,49,2015/4/1 6:34,35,73,2.2,965,971,2015/4/1 0:02,955,2015/4/1 23:09
2015/4/3 0:00,7,74,25.4,2015/4/2 3:54,63,-4.9,-2.5,2015/4/2 5:06,-6.6,2015/4/2 21:48,63,83,2015/4/2 3:21,46,2015/4/2 22:16,24,54,1.7,959,970,2015/4/2 23:54,951,2015/4/2 4:03
2015/4/4 0:00,5.2,77,21.1,2015/4/3 3:43,80,-4.5,-1.4,2015/4/3 14:25,-7.4,2015/4/3 23:09,47,81,2015/4/3 12:20,30,2015/4/3 21:41,23,49,1.5,972,975,2015/4/3 11:56,970,2015/4/3 0:04